Other Surface Observations
Issued by NWS

Home | Current Version | Previous Version | Text Only | Print | Product List | Glossary On
Versions: 1 2 3 4 5 6 7 8 9 10 11 12 13 14 15 16 17 18 19 20 21 22 23 24 25 26 27 28 29 30 31 32 33 34 35 36 37 38 39 40 41 42 43 44 45 46 47 48 49 50
714
SXUS52 KTAE 220406
OSOTAE
OSOTAE
North Florida/South Alabama/Southwest Georgia Weather Roundup
National Weather Service Tallahassee Florida
1100 PM EST TUE NOV 21 2017

Note: "fair" indicates few or no clouds below 12,000 feet with no
significant weather and/or obstructions to visibility.

!FLZ017-115-028-034-025-220500
...North Florida...

CITY           SKY/WX    TMP DP  RH WIND       PRES   REMARKS
TALLAHASSEE    FOG       57  57 100 CALM      29.97F VSB 3/4
APALACHICOLA   CLEAR     62  62 100 NE7       29.96S
PERRY          PTCLDY    60  59  96 CALM      29.99F
CROSS CITY     PTCLDY    64  64  98 NE6       30.01F
JACKSONVILLE   CLOUDY    62  61  96 CALM      29.98F
$$

!FLZ112-006-005-002-011-220500
...Florida Panhandle...

CITY           SKY/WX    TMP DP  RH WIND       PRES   REMARKS
MARIANNA       FOG       61  61 100 E3        29.98S VSB 3/4
BONIFAY        NOT AVBL
PANAMA CITY NW CLOUDY    61  57  87 CALM      29.97S
TYNDALL AFB    CLOUDY    64  62  92 NE3       29.97S
TYND DRONE APT CLOUDY    64  62  96 NE6       29.97S
DE FUNIAK SPR  MOCLDY    55  55  97 N3        29.99S
EGLIN AFB      PTCLDY    57  53  87 N3        29.99R
DESTIN         PTCLDY    63  56  78 N5        29.98R
HURLBURT       PTCLDY    58  54  86 N7        29.98R
CRESTVIEW      CLOUDY    53  51  93 CALM      30.02R
PENSACOLA      CLOUDY    57  51  80 NW8       30.02R
$$

!ALZ063-066-220500
...South Alabama...

CITY           SKY/WX    TMP DP  RH WIND       PRES   REMARKS
DOTHAN         CLEAR     56  56 100 N3        30.02F
OZARK CAIRNS   PTCLDY    56  55  95 CALM      29.99S
FT RUCKER HELI PTCLDY    57  56  99 CALM      29.99S
RUCKER HELI 3    N/A     58  56  93 NE3       29.99S
RUCKER HELI 2  MOCLDY    58  57  97 CALM      29.98S
FLORALA APT    MOCLDY    56  53  90 VRB3      30.02R
ANDALUSIA      CLOUDY    59  53  80 N5        30.00R
TROY           MOCLDY    53  53 100 W3        30.02R
EUFALA         FAIR      56  55  97 CALM      29.99S FOG
MOBILE         CLOUDY    58  49  72 N6        30.04R
$$

!GAZ120>161-220500
...Southwest and South Central Georgia...

CITY           SKY/WX    TMP DP  RH WIND       PRES   REMARKS
THOMASVILLE    FOG       61  61 100 CALM      29.99S VSB 1/4
BAINBRIDGE     CLOUDY    61  61 100 CALM      29.99S
MOODY AFB      FOG       59  59 100 CALM      29.98R VSB 3/4
VALDOSTA       FOG       57  56  96 CALM      29.99R VSB 3/4
MOULTRIE       FOG       57  57 100 CALM      30.00R VSB 3/4
BLAKELY        CLEAR     55  54  94 CALM      30.00S FOG
ALBANY         CLEAR     58  57  97 CALM      29.97S
TIFTON         FAIR     N/A N/A N/A CALM      29.99R FOG
FITZGERALD     FAIR      55  55 100 CALM      30.01S FOG
CORDELE        FAIR      59  57  92 CALM      30.01S
AMERICUS       FAIR      54  50  87 CALM      30.02S FOG
HOMERVILLE     CLOUDY    63  63 100 SE3       29.99R
$$

!GMZ750-755-770-775-220500
...Coastal and Buoy Obs...

STATION/POSITION TIME  TEMP    WIND        PRES    VSBY  WAVE
                       AIR SEA DIR/SP/G                  HT/PER
                 (UTC) (F)     (DEG/KT/KT) (MB)    (MI)  (FT/S)
KEATON BEACH     0400   62      40/  5/  7 1014.4F
CEDAR KEY        0300   66      40/  5/  7 1015.1R
C TOWER          0400   69     100/ 18/ 19 1014.5F
APALACHICOLA BUO NOT AVBL
PANAMA CITY BUOY 0250   71 77   20/ 12/ 14 1013.8          4/ 7
MOBILE BUOY      0350   70 78   20/ 10/ 14 1015.9F         3/ 7
ORANGE BCH AL BU NOT AVBL
$$




USA.gov is the U.S. government's official web portal to all federal, state and local government web resources and services.